Location: Ostrava
(49.8330°N, 18.2830°E)
Time: 05:07:02
(UTC+02:00)

Transit 2A - All Passes

Search period start: 28 August 2014 00:00
Search period end: 07 September 2014 00:00
Orbit: 602 x 961 km, 66.7° (Epoch: 26 August)

Date Brightness Start Highest point End Pass type
(mag) Time Alt. Az. Time Alt. Az. Time Alt. Az.
28 Aug - 00:06:55 10° NNW 00:10:09 18° NNE 00:13:32 10° ENE visible
28 Aug - 01:49:25 10° NNW 01:54:07 71° NE 01:59:16 10° SE visible
28 Aug - 03:33:23 10° WNW 03:36:56 20° WSW 03:40:42 10° SSW visible
28 Aug - 16:36:18 10° SSE 16:39:10 17° ESE 16:42:02 10° ENE daylight
28 Aug - 18:17:31 10° SW 18:21:51 66° NW 18:26:13 10° NNE daylight
28 Aug - 20:03:08 10° WNW 20:05:54 16° NNW 20:08:43 10° NNE daylight
28 Aug - 23:33:37 10° N 23:36:22 15° NNE 23:39:13 10° ENE visible
29 Aug - 01:15:58 10° NNW 01:20:34 52° NE 01:25:34 10° SE visible
29 Aug - 02:59:28 10° NW 03:03:35 28° WSW 03:08:01 10° S visible
29 Aug - 16:04:22 10° SE 16:05:54 12° ESE 16:07:27 10° E daylight
29 Aug - 17:43:58 10° SW 17:48:20 88° SE 17:52:44 10° NE daylight
29 Aug - 19:28:55 10° W 19:32:08 20° NNW 19:35:24 10° NNE daylight
29 Aug - 23:00:20 10° N 23:02:32 13° NNE 23:04:48 10° NE visible
30 Aug - 00:42:34 10° NNW 00:46:58 39° NE 00:51:45 10° ESE visible
30 Aug - 02:25:44 10° NW 02:30:12 39° WSW 02:35:04 10° S visible
30 Aug - 17:10:35 10° SSW 17:14:52 61° ESE 17:19:11 10° NE daylight
30 Aug - 18:54:49 10° W 18:58:24 25° NW 19:02:04 10° NNE daylight
30 Aug - 20:42:46 10° NNW 20:43:16 10° N 20:43:47 10° N visible
30 Aug - 22:27:06 10° N 22:28:40 12° NNE 22:30:17 10° NE visible
31 Aug - 00:09:11 10° NNW 00:13:20 31° NE 00:17:49 10° ESE visible
31 Aug - 01:52:06 10° NW 01:56:46 55° WSW 02:01:54 10° SSE visible
31 Aug - 16:37:21 10° S 16:41:27 41° ESE 16:45:34 10° NE daylight
31 Aug - 18:20:50 10° WSW 18:24:44 31° NW 18:28:42 10° NNE daylight
31 Aug - 20:07:57 10° NW 20:09:23 11° NNW 20:10:50 10° N visible
31 Aug - 21:54:00 10° N 21:54:47 10° NNE 21:55:34 10° NNE visible
31 Aug - 23:35:49 10° NNW 23:39:39 25° NE 23:43:45 10° E visible
01 Sep - 01:18:32 10° NW 01:23:18 76° SW 01:28:33 10° SSE visible
01 Sep - 03:03:42 10° W 03:05:51 13° WSW 03:08:04 10° SW visible
01 Sep - 16:04:20 10° S 16:08:05 29° ESE 16:11:50 10° NE daylight
01 Sep - 17:46:58 10° WSW 17:51:06 42° NW 17:55:18 10° NNE daylight
01 Sep - 19:33:27 10° NW 19:35:31 13° NNW 19:37:37 10° N daylight
01 Sep - 23:02:28 10° NNW 23:05:56 20° NNE 23:09:35 10° E visible
02 Sep - 00:45:02 10° NW 00:49:48 80° NE 00:55:03 10° SE visible
02 Sep - 02:29:14 10° WNW 02:32:33 18° WSW 02:36:05 10° SSW visible
02 Sep - 15:31:35 10° SSE 15:34:45 20° ESE 15:37:55 10° ENE daylight
02 Sep - 17:13:14 10° SW 17:17:31 58° NW 17:21:52 10° NNE daylight
02 Sep - 18:59:05 10° WNW 19:01:41 15° NNW 19:04:20 10° NNE daylight
02 Sep - 22:29:09 10° NNW 22:32:09 17° NNE 22:35:18 10° ENE visible
03 Sep - 00:11:35 10° NNW 00:16:16 59° NE 00:21:25 10° SE visible
03 Sep - 01:55:14 10° WNW 01:59:13 25° WSW 02:03:31 10° SSW visible
03 Sep - 14:59:18 10° SE 15:01:28 14° ESE 15:03:39 10° ENE daylight
03 Sep - 16:39:38 10° SW 16:43:59 82° NW 16:48:24 10° NE daylight
03 Sep - 18:24:49 10° WNW 18:27:53 18° NNW 18:31:02 10° NNE daylight
03 Sep - 21:55:50 10° N 21:58:20 14° NNE 22:00:56 10° NE visible
03 Sep - 23:38:09 10° NNW 23:42:41 44° NE 23:47:39 10° ESE visible
04 Sep - 01:21:26 10° NW 01:25:50 35° WSW 01:30:38 10° S visible
04 Sep - 16:06:11 10° SSW 16:10:30 70° ESE 16:14:52 10° NE daylight
04 Sep - 17:50:41 10° W 17:54:08 23° NW 17:57:41 10° NNE daylight
04 Sep - 21:22:33 10° N 21:24:29 12° NNE 21:26:28 10° NE visible
04 Sep - 23:04:45 10° NNW 23:09:04 34° NE 23:13:45 10° ESE visible
05 Sep - 00:47:46 10° NW 00:52:25 49° WSW 00:57:33 10° SSE visible
05 Sep - 15:32:53 10° SSW 15:37:04 48° ESE 15:41:17 10° NE daylight
05 Sep - 17:16:39 10° W 17:20:26 29° NW 17:24:19 10° NNE daylight
05 Sep - 19:03:57 10° NNW 19:05:11 11° NNW 19:06:26 10° N daylight
05 Sep - 20:49:19 10° N 20:50:36 11° NNE 20:51:54 10° NNE visible
05 Sep - 22:31:22 10° NNW 22:35:24 27° NE 22:39:43 10° E visible
06 Sep - 00:14:11 10° NW 00:18:58 68° WSW 00:24:16 10° SSE visible
06 Sep - 01:59:58 10° W 02:01:26 11° WSW 02:02:57 10° WSW visible
06 Sep - 14:59:47 10° S 15:03:40 33° ESE 15:07:35 10° NE daylight
06 Sep - 16:42:44 10° WSW 16:46:47 37° NW 16:50:56 10° NNE daylight
06 Sep - 18:29:25 10° NW 18:31:18 12° NNW 18:33:14 10° N daylight
06 Sep - 20:16:22 10° N 20:16:41 10° N 20:17:01 10° NNE visible
06 Sep - 21:58:01 10° NNW 22:01:41 22° NE 22:05:36 10° E visible
06 Sep - 23:40:39 10° NW 23:45:29 89° NE 23:50:49 10° SE visible
